Flag for Germany Weather past 2 weeks in Brühl (Rhineland), North Rhine-Westphalia, Germany

Now
55 °F

Passing clouds.


Feels Like: 54 °F
Forecast: 52 / 61 °F
Wind: 6 mph from Southwest

Location: Noervenich

Current Time: Sep 5, 2015 at 1:30:16 AM

Latest Report: Sep 5, 2015 at 12:00 AM


Visibility: 25 mi

Pressure: 29.98 "Hg

Humidity: 78%

Dew point: 48 °F

Location of Brühl (Rhineland)Location

Historic Weather in Brühl (Rhineland) — Graph

°F

Brühl (Rhineland) temperature yesterday

Maximum temperature yesterday: 61 °F (at 3:00 PM)
Minimum temperature yesterday: 50 °F (at 7:00 AM)
Average temperature yesterday: 56 °F

Past Weeks' High & Low Weather Summary

 TemperatureHumidityPressure
High91 °F (Aug 30, 3:00 PM)99% (Aug 28, 7:00 AM)30.25 "Hg (Aug 28, 7:00 AM)
Low50 °F (Sep 4, 7:00 AM)30% (Aug 31, 4:00 PM)29.54 "Hg (Aug 24, 4:00 PM)
Average66 °F72%29.95 "Hg
* Reported Midnight between Aug 20 and Aug 21 — Midnight between Sep 4 and Sep 5, Brühl (Rhineland), Weather by CustomWeather, © 2015

Note: Actual official high and low records may vary slightly from our data, if they occured in-between our weather recording intervals... More about our weather records

Advertising

Brühl (Rhineland) weather history for previous 24 hours

 ConditionsComfort  
Time TempWeatherWind HumidityBarometerVisibility
12:00 AM
Sat, Sep 5
55 °FPassing clouds.6 mph78%29.98 "Hg25 mi
10:00 PM
Fri, Sep 4
55 °FOvercast.2 mph79%29.98 "Hg25 mi
9:00 PM55 °FPassing clouds.3 mph78%29.98 "Hg16 mi
7:00 PM58 °FOvercast.7 mph73%29.96 "Hg19 mi
6:00 PM60 °FOvercast.5 mph62%29.96 "Hg22 mi
4:00 PM61 °FOvercast.6 mph59%29.97 "Hg25 mi
3:00 PM61 °FOvercast.6 mph59%29.98 "Hg25 mi
2:00 PM60 °FOvercast.5 mph61%29.99 "Hg25 mi
1:00 PM59 °FOvercast.7 mph67%29.99 "Hg25 mi
12:00 PM59 °FOvercast.5 mph70%30.00 "Hg25 mi
10:00 AM55 °FOvercast.3 mph75%29.99 "Hg25 mi
9:00 AM54 °FPartly sunny.3 mph80%29.98 "Hg25 mi
7:00 AM50 °FPassing clouds.1 mph88%29.98 "Hg9 mi
6:00 AM51 °FPassing clouds.2 mph87%29.97 "Hg19 mi
4:00 AM53 °FOvercast.1 mph81%29.98 "Hg19 mi
3:00 AM53 °FPassing clouds.1 mph85%29.98 "Hg19 mi
2:00 AM53 °FPassing clouds.1 mph84%29.99 "Hg19 mi
1:00 AM53 °FPassing clouds.1 mph82%29.98 "Hg19 mi
Weather by CustomWeather, © 2015

See weather overviewHow to use our weather pages